{"data":{"norad_id":61583,"epoch":"2026-09-21T15:26:00.049632Z","epoch_age_seconds":93314,"freshness":"FRESH","line1":"1 61583U 24187K   26264.64305613  .00000584  00000+0  96779-5 0  9992","line2":"2 61583  53.1590  50.5184 0000992  83.7867 276.3264 15.69714068111471","mean_motion":15.69714068,"eccentricity":9.92e-5,"inclination_deg":53.159,"raan_deg":50.5184,"arg_perigee_deg":83.7867,"mean_anomaly_deg":276.3264,"bstar":9.6779e-6,"rev_number":11147,"period_min":91.736452476006,"perigee_km":359.04671445682,"apogee_km":360.38350431532,"semimajor_km":6737.8521093861,"source":"CELESTRAK","updated_at":"2026-09-22T09:00:49.391924Z"}}